軌道要素
Epoch 2022 Aug. 9.0 TT = JDT 2459800.5
T 2022 Sept. 16.23589 TT Rudenko
q 2.9558950 (2000.0) P Q
z -0.0000349 Peri. 347.83818 +0.05931903 -0.41757567
+/-0.0000011 Node 268.28176 -0.82290965 -0.53461339
e 1.0001033 Incl. 114.89079 -0.56506721 +0.73472381
From 244 observations 2019 Dec. 3-2022 May 28, mean residual 0".4.
|